Вернуться в каталог

DELTA 1 DEB

АктивенLEO
NORAD 10629·DEBRIS·🇺🇸 United States

Запущен Jul 14, 1977 с Cape Canaveral Space Force Station

Loading…

Ближайшие Пролёты (ближайшие 24 часа)

TLE

СвежийSource: Space-Track

Эпоха: Sep 14, 2026, 11:10 UTC

1 10629U 77065EY  26257.46564070  .00000048  00000-0  39518-5 0  9990
2 10629  29.8301  29.3910 0813633   2.6225 357.8273 12.80264651289490

Отслеживайте DELTA 1 DEB в реальном времени с AllMySat

Download on the App Store